Showing default

OPS 5712 (P/L 153), 2874

Orbit data source: Space-Track

OPS 5712 (P/L 153), 2874 is an American payload satellite in LEO that was launched on Wed, 31 May 1967 UTC via a THOR SLV-2 AGENA D launch vehicle from the Air Force Western Test Range (AFWTR). Payload-class satellites include a variety of spacecraft equipped with specific instruments for various scientific and technological missions. These include communications satellites like Starlink; space stations such as the ISS; scientific satellites like the Hubble; Earth observation satellites from companies like Planet Labs, Umbra, and HawkEye 360; GPS; miniature CubeSats for education and research; and military/defense satellites.

Loading next visibility...
Identifier
2874, 1967-053H
Orbit
LEO
Country
Flag of USUS
Related business
Manufacturer
NRL
Mission
Operational Defense Sigint
Bus & Motor
NRL MULTI, Unknown motor
Mass
77 kg wet, 77 kg dry
Launch date (UTC)
1967-05-31 (58 years ago)
Launch vehicle
THOR SLV-2 AGENA D
Launch site
Air Force Western Test Range (AFWTR)
Object type
Payload
Rocket body
Debris
Shape & HBR
Ell + 1 Ant, 9.0 m
Radar Cross Section
1.399 m², Medium (>0.1 m² and < 1m²)

Expand to show TLE details & history
Last TLE update: 15 hours ago

TLE from 15 hours ago
0 OPS 5712 (P/L 153)
1 02874U 67053H   25260.64495486  .00000030  00000-0  60206-4 0  9994
2 02874  69.9763 339.4545 0008228 210.4981 149.5648 13.96767088968725
Epoch: 2025-09-17T15:28Z
TLE epoch observation values (Epoch: 2025-09-17T15:28:44.099Z)
Latitude
0.00001°
Longitude
110.45282°
Altitude
912.492 km
Speed
7.393 km/s
True Right ascension
22h 37m 49s
True Declination
0° 00' 00"
Sunlit
Object was in full shadow at epoch
Visualization orbit readout
Latitude
Unknown
Longitude
Unknown
Altitude
Unknown
Speed
Unknown
Apparent Right ascension
Unknown
Apparent Declination
Unknown
Sunlit
N/A
Visualization observer readout
Local Sidereal Time
23:21:25
Azimuth
Unknown
Elevation
Unknown
Doppler factor
Unknown
Orbital elements
Apogee altitude
909.048 km
Perigee altitude
897.066 km
Semi-major axis
7,281.194 km
Eccentricity
0.00082
Inclination
69.9763°
RAAN
339.4545°
Arg. of periapsis
210.4981°
True anomaly
149.61252°
Mean anomaly
149.5648°
Eccentric anomaly
149.58866°
Mean motion
3.49333 °/min
Orbital period
103.05 mins
BSTAR
0.000060206
Loading maneuver chart data...
Computing Atmospheric mass density...
Loading historical data...
Loading historical data...
Loading historical data...
Loading historical data...
Loading historical data...
Loading historical data...
Loading historical data...

Documentation

Showing up to 5 results
|